Location: California Institute of Technology
(34.1357°N, 118.1263°W)
Time: 09:11:13
(UTC-08:00)

OTV 5 (USA 277) - Visible Passes

Search period start: 19 January 2018 00:00
Search period end: 29 January 2018 00:00
Orbit: 404 x 417 km, 43.0° (Epoch: 07 September)

Date Brightness Start Highest point End Pass type
(mag) Time Alt. Az. Time Alt. Az. Time Alt. Az.
20 Jan ? 18:52:01 10° SW 18:54:32 39° S 18:54:32 39° S visible
21 Jan ? 18:01:20 10° SSW 18:04:15 28° SE 18:06:10 17° E visible
21 Jan ? 19:38:16 10° W 19:38:56 15° W 19:38:56 15° W visible
22 Jan ? 18:47:02 10° WSW 18:50:22 63° NNW 18:50:30 62° N visible
23 Jan ? 17:55:56 10° WSW 17:59:18 81° SSE 18:02:01 15° ENE visible
23 Jan ? 19:34:04 10° WNW 19:34:47 14° WNW 19:34:47 14° WNW visible
24 Jan ? 18:42:38 10° W 18:45:41 30° NNW 18:46:14 28° N visible
25 Jan ? 17:51:18 10° W 17:54:31 41° NNW 17:57:40 10° NE visible
25 Jan ? 19:29:56 10° NW 19:30:25 12° NW 19:30:25 12° NW visible
26 Jan ? 18:38:31 10° WNW 18:41:09 20° N 18:41:49 19° N visible
27 Jan ? 17:47:05 10° WNW 17:49:54 24° NNW 17:52:44 10° NE visible
27 Jan ? 19:25:34 10° NW 19:25:57 12° NW 19:25:57 12° NW visible
28 Jan ? 18:34:19 10° NW 18:36:41 18° N 18:37:20 17° NNE visible
